Hourly Weather Almamellék

Today, 4 March, Thursday

Time Temperature Precipitation Wind Pressure Humidity
00:00 +7°C° 0 mm 1 mps 754 mmHg 65%
01:00 +7°C° 0 mm 1 mps 753 mmHg 67%
02:00 +7°C° 0 mm 1 mps 753 mmHg 69%
03:00 +6°C° 0 mm 1 mps 752 mmHg 71%
04:00 +5°C° 0 mm 2 mps 752 mmHg 73%
05:00 +5°C° 0 mm 2 mps 751 mmHg 74%
06:00 +4°C° 0 mm 2 mps 751 mmHg 76%
07:00 +4°C° 0 mm 2 mps 751 mmHg 77%
08:00 +5°C° 0 mm 3 mps 751 mmHg 70%
09:00 +8°C° 0 mm 3 mps 751 mmHg 62%
10:00 +10°C° 0 mm 3 mps 750 mmHg 55%
11:00 +11°C° 0 mm 3 mps 750 mmHg 50%
12:00 +12°C° 0 mm 4 mps 749 mmHg 45%
13:00 +14°C° 0 mm 4 mps 749 mmHg 40%
14:00 +14°C° 0 mm 4 mps 748 mmHg 42%
15:00 +14°C° 0 mm 3 mps 748 mmHg 43%
16:00 +14°C° 0 mm 3 mps 748 mmHg 45%
17:00 +12°C° 0 mm 3 mps 747 mmHg 50%
18:00 +12°C° 0 mm 2 mps 747 mmHg 56%
19:00 +9°C° 0 mm 2 mps 747 mmHg 61%
20:00 +9°C° 0 mm 2 mps 747 mmHg 62%
21:00 +8°C° 0 mm 3 mps 747 mmHg 62%
22:00 +8°C° 0 mm 3 mps 747 mmHg 63%
23:00 +8°C° 0 mm 3 mps 747 mmHg 65%

Tomorrow, 5 March, Friday

Time Temperature Precipitation Wind Pressure Humidity
00:00 +6°C° 0 mm 4 mps 747 mmHg 67%
01:00 +6°C° 0 mm 4 mps 746 mmHg 69%
02:00 +6°C° 0 mm 4 mps 746 mmHg 71%
03:00 +6°C° 0 mm 4 mps 746 mmHg 73%
04:00 +6°C° 0 mm 4 mps 746 mmHg 75%
05:00 +7°C° 0 mm 3 mps 746 mmHg 76%
06:00 +7°C° 0 mm 3 mps 746 mmHg 77%
07:00 +7°C° 0 mm 2 mps 746 mmHg 79%
08:00 +8°C° 0 mm 3 mps 746 mmHg 75%
09:00 +9°C° 0 mm 3 mps 746 mmHg 71%
10:00 +10°C° 0 mm 3 mps 746 mmHg 67%
11:00 +10°C° 0.1 mm 3 mps 746 mmHg 66%
12:00 +11°C° 0.1 mm 3 mps 747 mmHg 64%
13:00 +12°C° 0.1 mm 2 mps 747 mmHg 62%
14:00 +10°C° 0.1 mm 4 mps 747 mmHg 64%
15:00 +8°C° 0.1 mm 5 mps 747 mmHg 65%
16:00 +5°C° 0.1 mm 6 mps 747 mmHg 66%
17:00 +5°C° 0 mm 6 mps 748 mmHg 65%
18:00 +5°C° 0 mm 5 mps 749 mmHg 63%
19:00 +5°C° 0 mm 5 mps 750 mmHg 62%
20:00 +3°C° 0 mm 5 mps 751 mmHg 60%
21:00 +3°C° 0 mm 5 mps 752 mmHg 58%
22:00 +3°C° 0 mm 4 mps 753 mmHg 56%
23:00 +1°C° 0 mm 4 mps 754 mmHg 60%

Day after tomorrow, 6 March, Saturday

Time Temperature Precipitation Wind Pressure Humidity
00:00 +1°C° 0 mm 4 mps 755 mmHg 63%
01:00 0°C° 0 mm 4 mps 756 mmHg 67%
02:00 0°C° 0 mm 4 mps 756 mmHg 70%
03:00 -1°C° 0 mm 4 mps 756 mmHg 73%
04:00 0°C° 0 mm 3 mps 757 mmHg 77%
05:00 0°C° 0 mm 3 mps 757 mmHg 75%
06:00 0°C° 0 mm 3 mps 758 mmHg 73%
07:00 -1°C° 0 mm 2 mps 758 mmHg 71%
08:00 +1°C° 0 mm 2 mps 759 mmHg 63%
09:00 +3°C° 0 mm 2 mps 759 mmHg 54%
10:00 +4°C° 0 mm 2 mps 759 mmHg 46%
11:00 +4°C° 0 mm 2 mps 759 mmHg 42%
12:00 +5°C° 0 mm 2 mps 759 mmHg 38%
13:00 +5°C° 0 mm 3 mps 759 mmHg 35%
14:00 +6°C° 0 mm 2 mps 759 mmHg 34%
15:00 +6°C° 0 mm 2 mps 758 mmHg 33%
16:00 +6°C° 0 mm 2 mps 758 mmHg 33%
17:00 +5°C° 0 mm 2 mps 758 mmHg 37%
18:00 +5°C° 0 mm 1 mps 758 mmHg 41%
19:00 +4°C° 0 mm 1 mps 758 mmHg 45%
20:00 +3°C° 0 mm 1 mps 758 mmHg 47%
21:00 +3°C° 0 mm 1 mps 759 mmHg 49%
22:00 +2°C° 0 mm 1 mps 759 mmHg 50%
23:00 +2°C° 0 mm 1 mps 758 mmHg 52%

7 March, Sunday

Time Temperature Precipitation Wind Pressure Humidity
00:00 +2°C° 0 mm 1 mps 758 mmHg 53%
01:00 +1°C° 0 mm 1 mps 758 mmHg 54%
02:00 +1°C° 0 mm 1 mps 757 mmHg 55%
03:00 +1°C° 0 mm 1 mps 757 mmHg 56%
04:00 +1°C° 0 mm 1 mps 756 mmHg 57%
05:00 +1°C° 0 mm 1 mps 756 mmHg 58%
06:00 +1°C° 0 mm 1 mps 756 mmHg 58%
07:00 +1°C° 0 mm 1 mps 756 mmHg 59%
08:00 +2°C° 0 mm 2 mps 756 mmHg 53%
09:00 +3°C° 0 mm 2 mps 756 mmHg 47%
10:00 +5°C° 0 mm 2 mps 755 mmHg 42%
11:00 +6°C° 0 mm 2 mps 755 mmHg 40%
12:00 +7°C° 0 mm 2 mps 754 mmHg 37%
13:00 +7°C° 0 mm 2 mps 753 mmHg 35%
14:00 +7°C° 0 mm 2 mps 753 mmHg 35%
15:00 +8°C° 0 mm 2 mps 752 mmHg 35%
16:00 +8°C° 0 mm 2 mps 751 mmHg 35%
17:00 +6°C° 0 mm 2 mps 751 mmHg 41%
18:00 +5°C° 0 mm 2 mps 750 mmHg 46%
19:00 +5°C° 0 mm 1 mps 750 mmHg 51%
20:00 +4°C° 0 mm 1 mps 750 mmHg 53%
21:00 +4°C° 0 mm 1 mps 750 mmHg 55%
22:00 +3°C° 0 mm 1 mps 750 mmHg 57%
23:00 +3°C° 0 mm 1 mps 749 mmHg 58%

8 March, Monday

Time Temperature Precipitation Wind Pressure Humidity
00:00 +3°C° 0 mm 1 mps 749 mmHg 59%
01:00 +3°C° 0 mm 1 mps 749 mmHg 61%
02:00 +2°C° 0 mm 1 mps 748 mmHg 62%
03:00 +2°C° 0 mm 1 mps 748 mmHg 63%
04:00 +1°C° 0 mm 0 mps 748 mmHg 64%
05:00 +2°C° 0 mm 1 mps 748 mmHg 65%
06:00 +2°C° 0 mm 1 mps 748 mmHg 65%
07:00 +2°C° 0 mm 1 mps 748 mmHg 66%
08:00 +4°C° 0 mm 1 mps 748 mmHg 60%
09:00 +5°C° 0 mm 2 mps 749 mmHg 54%
10:00 +7°C° 0 mm 2 mps 749 mmHg 48%
11:00 +8°C° 0 mm 2 mps 749 mmHg 44%
12:00 +9°C° 0 mm 3 mps 749 mmHg 40%
13:00 +10°C° 0 mm 3 mps 749 mmHg 36%
14:00 +9°C° 0 mm 3 mps 748 mmHg 36%
15:00 +8°C° 0 mm 4 mps 748 mmHg 36%
16:00 +8°C° 0 mm 4 mps 748 mmHg 36%
17:00 +8°C° 0 mm 3 mps 748 mmHg 42%
18:00 +5°C° 0 mm 3 mps 749 mmHg 48%
19:00 +5°C° 0 mm 2 mps 749 mmHg 54%
20:00 +4°C° 0 mm 2 mps 750 mmHg 59%
21:00 +4°C° 0 mm 2 mps 750 mmHg 64%
22:00 +3°C° 0 mm 2 mps 751 mmHg 69%
23:00 +3°C° 0 mm 2 mps 751 mmHg 71%

9 March, Tuesday

Time Temperature Precipitation Wind Pressure Humidity
00:00 +2°C° 0 mm 2 mps 751 mmHg 73%
01:00 +2°C° 0 mm 2 mps 751 mmHg 76%
02:00 +2°C° 0 mm 2 mps 752 mmHg 77%
03:00 0°C° 0 mm 3 mps 752 mmHg 79%
04:00 -1°C° 0 mm 3 mps 752 mmHg 80%
05:00 -1°C° 0 mm 3 mps 752 mmHg 78%
06:00 -1°C° 0 mm 3 mps 753 mmHg 76%
07:00 -1°C° 0 mm 2 mps 753 mmHg 74%
08:00 0°C° 0 mm 3 mps 753 mmHg 65%
09:00 +1°C° 0 mm 3 mps 754 mmHg 56%
10:00 +3°C° 0 mm 3 mps 754 mmHg 47%
11:00 +4°C° 0 mm 3 mps 754 mmHg 44%
12:00 +4°C° 0 mm 3 mps 754 mmHg 41%
13:00 +5°C° 0 mm 3 mps 754 mmHg 38%
14:00 +5°C° 0 mm 3 mps 754 mmHg 38%
15:00 +5°C° 0 mm 3 mps 754 mmHg 38%
16:00 +5°C° 0 mm 3 mps 754 mmHg 38%
17:00 +4°C° 0 mm 3 mps 754 mmHg 44%
18:00 +2°C° 0 mm 3 mps 755 mmHg 50%
19:00 +2°C° 0 mm 2 mps 755 mmHg 56%
20:00 +2°C° 0 mm 2 mps 756 mmHg 56%
21:00 +1°C° 0 mm 2 mps 756 mmHg 55%
22:00 -1°C° 0 mm 2 mps 757 mmHg 54%
23:00 -1°C° 0 mm 2 mps 757 mmHg 54%
Show more